Location: Ostrava
(49.8330°N, 18.2830°E)
Time: 20:39:16
(UTC+02:00)

ISS - Visible Passes

Search period start: 16 July 2018 00:00
Search period end: 26 July 2018 00:00
Orbit: 402 x 408 km, 51.6° (Epoch: 17 July)

Date Brightness Start Highest point End Pass type
(mag) Time Alt. Az. Time Alt. Az. Time Alt. Az.
16 Jul -3.7 00:59:18 59° ESE 00:59:18 59° ESE 01:02:13 10° ENE visible
16 Jul -3.3 02:32:13 10° W 02:35:30 61° N 02:38:46 10° ENE visible
16 Jul -3.8 04:08:50 10° WNW 04:12:09 88° NNE 04:15:27 10° ESE visible
17 Jul -2.2 00:08:35 23° E 00:08:35 23° E 00:10:05 10° ENE visible
17 Jul -3.5 01:41:12 20° W 01:43:21 68° N 01:46:40 10° ENE visible
17 Jul -3.5 03:16:45 10° WNW 03:20:02 71° N 03:23:20 10° E visible
17 Jul -1.3 23:17:37 11° E 23:17:37 11° E 23:17:51 10° E visible
18 Jul -3.8 00:50:12 41° W 00:51:14 83° NNW 00:54:33 10° ENE visible
18 Jul -3.4 02:24:38 10° WNW 02:27:53 62° N 02:31:10 10° E visible
18 Jul -3.8 04:01:10 10° WNW 04:04:26 59° SSW 04:07:41 10° SE visible
18 Jul -4.0 23:58:10 42° SW 23:59:08 75° SSE 00:02:26 10° ENE visible
19 Jul -3.3 01:32:28 10° W 01:35:44 60° N 01:39:00 10° E visible
19 Jul -3.9 03:09:03 10° WNW 03:12:21 83° SSW 03:15:39 10° ESE visible
19 Jul -1.8 21:30:06 10° SSE 21:31:11 11° SE 21:32:17 10° ESE visible
19 Jul -3.7 23:03:52 10° SW 23:07:04 51° SSE 23:10:17 10° ENE visible
20 Jul -3.4 00:40:17 10° W 00:43:33 65° N 00:46:50 10° ENE visible
20 Jul -3.7 02:16:55 10° WNW 02:20:13 76° NNE 02:23:31 10° E visible
20 Jul -3.1 03:53:33 10° W 03:56:34 33° SSW 03:59:35 10° SE visible
20 Jul -3.2 22:12:03 10° SW 22:15:03 33° SSE 22:18:03 10° E visible
20 Jul -3.7 23:48:05 10° W 23:51:23 76° NNW 23:54:41 10° ENE visible
21 Jul -3.4 01:24:46 10° WNW 01:28:03 65° N 01:31:21 10° E visible
21 Jul -3.7 03:01:20 10° WNW 03:04:32 51° SSW 03:07:45 10° SE visible
21 Jul -2.5 21:20:29 10° SSW 21:23:04 22° SE 21:25:40 10° E visible
21 Jul -4.0 22:55:57 10° WSW 22:59:14 84° SSE 23:02:31 10° ENE visible
22 Jul -3.3 00:32:35 10° W 00:35:51 60° N 00:39:07 10° E visible
22 Jul -4.0 02:09:09 10° WNW 02:12:27 74° SSW 02:15:44 10° ESE visible
22 Jul -2.4 03:46:11 10° W 03:48:32 18° SW 03:50:53 10° S visible
22 Jul -3.8 22:03:53 10° SW 22:07:06 59° SSE 22:10:21 10° ENE visible
22 Jul -3.4 23:40:22 10° W 23:43:38 62° N 23:46:55 10° ENE visible
23 Jul -3.9 01:16:59 10° WNW 01:20:17 83° NNE 01:20:45 63° E visible
23 Jul -3.6 22:48:08 10° W 22:51:25 71° N 22:54:43 10° ENE visible
24 Jul -3.6 00:24:48 10° WNW 00:28:05 68° N 00:29:01 42° ENE visible
24 Jul -1.2 02:01:23 10° WNW 02:01:37 12° W 02:01:37 12° W visible
24 Jul -3.8 21:55:56 10° WSW 21:59:13 88° NNW 22:02:31 10° ENE visible
24 Jul -3.4 23:32:36 10° WNW 23:35:51 61° N 23:38:00 19° E visible
25 Jul -2.1 01:09:08 10° WNW 01:10:36 24° W 01:10:36 24° W visible
25 Jul -3.3 22:40:21 10° W 22:43:36 61° N 22:46:52 10° E visible
